ONEWEB-0243 (48774 NORAD) Tracking and Keplerian Element Data

This shows tracking and keplerian element data for the satellite.

Feedback or suggestion? Click here.




ElementValue
Catalog48774
NameONEWEB-0243
Epoch Orbit186
Epoch Day170.58334491
Epoch Year2021
RAAN268.8904
Inclination87.4077
Eccentricity0.0010091
Argument of Perigee178.1514
Mean Anonmoly192.3144
Mean Motion15.30641173
Decay Rate-0.00908657
L11 48774U 21045H 21170.58334491 -.00908657 00000-0 -33442-1 0 9994
L22 48774 87.4077 268.8904 0010091 178.1514 192.3144 15.30641173 1860

Live tracking and technical data element details for ONEWEB-0243 (NORAD 48774). ONEWEB-0243 can be tracked NOW for your location showing map with azimuth and elevation plus other details from your city location.

Track the satellite on the map from your city or location and see movement details for azimuth, elevation, latitude, longitude, range, height, and movement on the map or in text.







IsCatalogInMostPopularTable: catalog: 48774, numindb: 3
Update: records affected: 1



GetName: 48774 ONEWEB-0243

Hit Count: updated at: Mon, 21 Jun 2021 04:26:44 GMT